FW9404 Weather Reports


Display with metric or nautical units.
time (UTC)temp
F
wind
direction
speed
MPH
gust
MPH
rain 1hr
in
rain 24hr
in
rain mn
in
humidity
%
barometer
mb
20260506170520 86 255 8.0 9.0 0.00 0.00 0.00 80 1010.9
20260506170012 85 165 4.0 5.0 0.00 0.00 0.00 81 1010.9
20260506165510 84 210 5.0 7.0 0.00 0.00 0.00 83 1010.9
20260506165006 84 166 3.0 3.0 0.00 0.00 0.00 84 1011.1
20260506164503 83 228 3.0 3.0 0.00 0.00 0.00 85 1011.1
20260506164000 83 166 5.0 7.0 0.00 0.00 0.00 86 1011.0
20260506163455 82 165 7.0 9.0 0.00 0.00 0.00 87 1011.0
20260506162950 82 175 7.0 9.0 0.00 0.00 0.00 87 1011.2
20260506162448 82 202 4.0 5.0 0.00 0.00 0.00 87 1011.2
20260506161945 82 198 4.0 5.0 0.00 0.00 0.00 89 1011.1
20260506161443 81 161 5.0 5.0 0.00 0.00 0.00 89 1011.2
20260506160940 81 191 5.0 5.0 0.00 0.00 0.00 90 1011.0
20260506160438 81 154 5.0 5.0 0.00 0.00 0.00 90 1011.0
20260506155935 81 173 6.0 9.0 0.00 0.00 0.00 89 1011.0
20260506155432 81 180 5.0 7.0 0.00 0.00 0.00 89 1010.9
20260506153554 81 190 7.0 10.0 0.00 0.00 0.00 89 1010.6
20260506153051 81 215 6.0 7.0 0.00 0.00 0.00 90 1010.7
20260506152548 81 173 7.0 9.0 0.00 0.00 0.00 90 1010.5
20260506152046 81 173 9.0 14.0 0.00 0.00 0.00 90 1010.6
20260506151544 80 200 4.0 7.0 0.00 0.00 0.00 90 1010.5
20260506151041 80 143 8.0 10.0 0.00 0.00 0.00 91 1010.5
20260506150537 80 183 8.0 9.0 0.00 0.00 0.00 91 1010.4
20260506150034 80 161 10.0 15.0 0.00 0.00 0.00 91 1010.7
20260506145531 80 158 5.0 7.0 0.00 0.00 0.00 91 1010.7
20260506145028 80 162 7.0 10.0 0.00 0.00 0.00 91 1010.6
20260506144525 80 148 9.0 14.0 0.00 0.00 0.00 91 1010.7
20260506144022 80 163 7.0 9.0 0.00 0.00 0.00 91 1010.6
20260506143520 80 162 8.0 10.0 0.00 0.00 0.00 91 1010.7
20260506143019 79 233 9.0 14.0 0.00 0.00 0.00 91 1010.6
20260506142516 79 121 5.0 7.0 0.00 0.00 0.00 91 1010.8
20260506142014 79 176 4.0 5.0 0.00 0.00 0.00 92 1010.6
20260506141511 79 160 7.0 9.0 0.00 0.00 0.00 92 1010.8
20260506141009 79 163 7.0 10.0 0.00 0.00 0.00 92 1010.9
20260506140506 79 137 8.0 10.0 0.00 0.00 0.00 92 1010.7
20260506140004 79 123 7.0 9.0 0.00 0.00 0.00 92 1010.7
20260506135500 79 168 8.0 10.0 0.00 0.00 0.00 92 1010.7
20260506134956 79 123 2.0 2.0 0.00 0.00 0.00 92 1010.9
20260506134452 79 145 5.0 7.0 0.00 0.00 0.00 92 1010.6
20260506133949 79 148 3.0 7.0 0.00 0.00 0.00 92 1010.7
20260506133446 79 153 7.0 9.0 0.00 0.00 0.00 92 1010.6
20260506132943 79 136 3.0 5.0 0.00 0.00 0.00 92 1010.7
20260506132440 78 144 6.0 7.0 0.00 0.00 0.00 92 1010.5
20260506131938 78 177 5.0 5.0 0.00 0.00 0.00 92 1010.8
20260506131434 78 119 2.0 3.0 0.00 0.00 0.00 92 1010.5
20260506130931 78 150 3.0 3.0 0.00 0.00 0.00 92 1010.6
20260506130427 78 149 2.0 2.0 0.00 0.00 0.00 92 1010.4
20260506125925 78 168 3.0 5.0 0.00 0.00 0.00 92 1010.4
20260506125424 78 152 7.0 10.0 0.00 0.00 0.00 92 1010.5
20260506124922 78 140 3.0 3.0 0.00 0.00 0.00 92 1010.4
20260506124419 78 137 4.0 5.0 0.00 0.00 0.00 92 1010.3
20260506123916 78 150 7.0 9.0 0.00 0.00 0.00 92 1010.2
20260506123414 78 96 3.0 5.0 0.00 0.00 0.00 92 1010.1
20260506122911 78 143 7.0 7.0 0.00 0.00 0.00 92 1010.0
20260506122408 78 99 4.0 5.0 0.00 0.00 0.00 92 1010.2
20260506121907 78 138 4.0 5.0 0.00 0.00 0.00 92 1010.1
20260506121403 78 126 8.0 10.0 0.00 0.00 0.00 92 1010.0
20260506120900 78 123 8.0 10.0 0.00 0.00 0.00 93 1009.9
20260506120358 78 116 4.0 5.0 0.00 0.00 0.00 93 1009.8
20260506115855 78 113 2.0 3.0 0.00 0.00 0.00 93 1009.9
20260506115353 77 109 7.0 7.0 0.00 0.00 0.00 93 1009.7
20260506114851 77 105 1.0 2.0 0.00 0.00 0.00 93 1009.9
20260506114348 77 101 2.0 2.0 0.00 0.00 0.00 93 1009.8
20260506113847 78 108 4.0 5.0 0.00 0.00 0.00 93 1009.9
20260506113344 78 130 3.0 3.0 0.00 0.00 0.00 93 1009.6
20260506112840 78 111 4.0 5.0 0.00 0.00 0.00 92 1009.9
20260506112338 78 124 3.0 5.0 0.00 0.00 0.00 92 1009.8
20260506111835 78 100 4.0 5.0 0.00 0.00 0.00 92 1009.6
20260506111333 78 90 3.0 3.0 0.00 0.00 0.00 92 1009.7
20260506110830 78 97 1.0 2.0 0.00 0.00 0.00 92 1009.7
20260506110327 78 127 3.0 5.0 0.00 0.00 0.00 92 1009.7
20260506105824 78 94 2.0 2.0 0.00 0.00 0.00 92 1009.6
20260506105320 78 105 2.0 2.0 0.00 0.00 0.00 92 1009.6
20260506104818 78 91 4.0 7.0 0.00 0.00 0.00 92 1009.3
20260506104316 78 86 4.0 5.0 0.00 0.00 0.00 92 1009.3
20260506103813 78 101 3.0 3.0 0.00 0.00 0.00 92 1009.6
20260506103310 78 103 3.0 3.0 0.00 0.00 0.00 92 1009.6
20260506102808 78 106 3.0 3.0 0.00 0.00 0.00 92 1009.5
20260506102306 78 96 3.0 3.0 0.00 0.00 0.00 92 1009.6
20260506101803 78 131 3.0 3.0 0.00 0.00 0.00 92 1009.5
20260506101258 78 140 3.0 3.0 0.00 0.00 0.00 92 1009.5
20260506100757 78 125 3.0 3.0 0.00 0.00 0.00 92 1009.4
20260506100255 78 103 0.0 0.0 0.00 0.00 0.00 92 1009.4
20260506095753 78 144 5.0 5.0 0.00 0.00 0.00 92 1009.5
20260506095249 78 122 1.0 2.0 0.00 0.00 0.00 92 1009.5
20260506094746 78 134 3.0 3.0 0.00 0.00 0.00 92 1009.3
20260506094245 78 112 4.0 5.0 0.00 0.00 0.00 92 1009.3
20260506093743 78 167 9.0 10.0 0.00 0.00 0.00 92 1009.4
20260506093239 78 124 3.0 3.0 0.00 0.00 0.00 92 1009.3
20260506092737 78 95 5.0 7.0 0.00 0.00 0.00 92 1009.4
20260506092235 78 112 4.0 5.0 0.00 0.00 0.00 92 1009.2
20260506091732 78 130 5.0 7.0 0.00 0.00 0.00 92 1009.3
20260506091230 78 121 3.0 5.0 0.00 0.00 0.00 92 1009.1
20260506090727 78 161 7.0 9.0 0.00 0.00 0.00 92 1009.2
20260506090224 78 140 6.0 7.0 0.00 0.00 0.00 92 1009.1
20260506085721 78 159 7.0 9.0 0.00 0.00 0.00 92 1009.4
20260506085217 78 113 4.0 5.0 0.00 0.00 0.00 92 1009.0
20260506084714 78 140 8.0 10.0 0.00 0.00 0.00 92 1009.2
20260506084210 78 179 4.0 5.0 0.00 0.00 0.00 92 1009.0
20260506083707 78 160 11.0 15.0 0.00 0.00 0.00 92 1008.9
20260506083205 78 130 9.0 12.0 0.00 0.00 0.00 92 1008.9
20260506082702 78 179 5.0 9.0 0.00 0.00 0.00 92 1009.1
20260506082202 78 206 5.0 9.0 0.00 0.00 0.00 92 1008.7
20260506081700 78 188 7.0 9.0 0.00 0.00 0.00 92 1008.8
20260506081158 78 159 7.0 10.0 0.00 0.00 0.00 92 1009.2
20260506080656 78 165 5.0 5.0 0.00 0.00 0.00 91 1009.0
20260506080152 78 131 8.0 10.0 0.00 0.00 0.00 91 1009.2
20260506073136 78 138 8.0 12.0 0.00 0.00 0.00 91 1009.2
20260506072632 78 182 9.0 12.0 0.00 0.00 0.00 91 1009.4
20260506072131 78 169 10.0 12.0 0.00 0.00 0.00 91 1009.1
20260506071628 78 147 12.0 15.0 0.00 0.00 0.00 91 1009.0
20260506071125 78 149 10.0 15.0 0.00 0.00 0.00 91 1009.0
20260506070622 78 146 11.0 14.0 0.00 0.00 0.00 91 1009.4
20260506070119 78 192 7.0 10.0 0.00 0.00 0.00 91 1009.3
20260506062056 78 165 9.0 10.0 0.00 0.00 0.00 91 1009.8
20260506061552 78 143 8.0 9.0 0.00 0.00 0.00 91 1009.9
20260506061050 78 158 11.0 12.0 0.00 0.00 0.00 91 1009.7
20260506060548 78 174 11.0 14.0 0.00 0.00 0.00 91 1010.0
20260506051017 78 202 10.0 15.0 0.00 0.00 0.00 92 1010.3
20260506050515 78 167 6.0 12.0 0.00 0.00 0.00 92 1010.3
20260506045005 78 151 10.0 14.0 0.00 0.00 0.00 92 1010.0
20260506044504 78 171 11.0 12.0 0.00 0.00 0.00 92 1010.3
20260506044000 78 148 5.0 7.0 0.00 0.00 0.00 92 1010.4
20260506043457 78 127 9.0 10.0 0.00 0.00 0.00 92 1010.1
20260506042955 78 157 7.0 12.0 0.00 0.00 0.00 92 1010.1
20260506042454 78 146 6.0 9.0 0.00 0.00 0.00 92 1010.1
20260506041952 78 170 14.0 17.0 0.00 0.00 0.00 92 1010.2
20260506041450 78 195 6.0 9.0 0.00 0.00 0.00 92 1009.9
20260506040947 78 114 9.0 12.0 0.00 0.00 0.00 92 1009.9
20260506040444 78 146 7.0 10.0 0.00 0.00 0.00 92 1010.1
20260506035940 78 139 10.0 12.0 0.00 0.00 0.00 91 1009.9
20260506035438 78 159 8.0 10.0 0.00 0.00 0.00 91 1010.0
20260506034934 78 189 13.0 21.0 0.00 0.00 0.00 91 1009.9
20260506034431 78 195 6.0 7.0 0.00 0.00 0.00 91 1009.8
20260506033929 78 132 5.0 7.0 0.00 0.00 0.00 91 1010.0
20260506033426 78 148 10.0 15.0 0.00 0.00 0.00 91 1009.7
20260506032922 78 176 10.0 10.0 0.00 0.00 0.00 91 1009.8
20260506032419 78 180 11.0 15.0 0.00 0.00 0.00 91 1009.6
20260506031916 78 157 9.0 15.0 0.00 0.00 0.00 91 1009.7
20260506031414 78 202 12.0 15.0 0.00 0.00 0.00 91 1009.5
20260506030911 78 184 15.0 24.0 0.00 0.00 0.00 91 1009.4
20260506030409 78 146 5.0 5.0 0.00 0.00 0.00 91 1009.4
20260506025906 78 172 13.0 22.0 0.00 0.00 0.00 91 1009.5
20260506025403 78 135 10.0 14.0 0.00 0.00 0.00 91 1009.2
20260506024859 78 180 13.0 15.0 0.00 0.00 0.00 91 1009.3
20260506024356 78 153 12.0 14.0 0.00 0.00 0.00 91 1009.2
20260506023852 78 158 11.0 15.0 0.00 0.00 0.00 91 1009.2
20260506023349 78 157 16.0 21.0 0.00 0.00 0.00 91 1008.9
20260506022846 78 155 11.0 17.0 0.00 0.00 0.00 91 1009.3
20260506022343 79 151 8.0 10.0 0.00 0.00 0.00 91 1009.1
20260506021841 79 157 15.0 24.0 0.00 0.00 0.00 90 1009.1
20260506021338 79 132 19.0 24.0 0.00 0.00 0.00 90 1009.1
20260506020835 79 149 10.0 14.0 0.00 0.00 0.00 90 1008.8
20260506020333 79 178 13.0 21.0 0.00 0.00 0.00 90 1008.8
20260506015830 79 133 8.0 10.0 0.00 0.00 0.00 90 1008.5
20260506015327 79 216 8.0 10.0 0.00 0.00 0.00 90 1008.5
20260506014824 79 140 7.0 9.0 0.00 0.00 0.00 90 1008.8
20260506014321 79 169 13.0 19.0 0.00 0.00 0.00 89 1008.4
20260506013817 79 182 3.0 3.0 0.00 0.00 0.00 89 1008.5
20260506013315 79 130 12.0 17.0 0.00 0.00 0.00 89 1008.5
20260506012811 80 156 11.0 15.0 0.00 0.00 0.00 89 1008.5
20260506012308 80 170 10.0 15.0 0.00 0.00 0.00 89 1008.1
20260506011805 80 131 11.0 12.0 0.00 0.00 0.00 89 1008.4
20260506011302 80 153 12.0 15.0 0.00 0.00 0.00 88 1007.8
20260506010800 80 165 16.0 26.0 0.00 0.00 0.00 88 1007.8
20260506010257 80 174 8.0 10.0 0.00 0.00 0.00 88 1007.7
20260506005754 80 168 9.0 15.0 0.00 0.00 0.00 88 1007.6
20260506005251 80 179 15.0 22.0 0.00 0.00 0.00 87 1007.8
20260506004747 81 125 6.0 7.0 0.00 0.00 0.00 87 1007.7
20260506004245 81 150 20.0 26.0 0.00 0.00 0.00 87 1007.8
20260506003740 81 169 10.0 15.0 0.00 0.00 0.00 86 1007.7
20260506003237 81 157 9.0 12.0 0.00 0.00 0.00 86 1007.6
20260506002733 82 190 14.0 24.0 0.00 0.00 0.00 86 1007.6
20260506002229 82 147 12.0 17.0 0.00 0.00 0.00 85 1007.5
20260506001725 82 185 6.0 10.0 0.00 0.00 0.00 84 1007.3
20260506001223 82 116 15.0 24.0 0.00 0.00 0.00 84 1007.7
20260506000720 83 137 14.0 22.0 0.00 0.00 0.00 83 1007.6
20260506000219 83 158 11.0 14.0 0.00 0.00 0.00 83 1007.6
20260505235714 83 160 15.0 22.0 0.00 0.00 0.00 83 1007.4
20260505235212 84 191 17.0 21.0 0.00 0.00 0.00 82 1007.6
20260505234709 84 138 9.0 12.0 0.00 0.00 0.00 82 1007.4
20260505234206 84 199 13.0 21.0 0.00 0.00 0.00 81 1007.3
20260505233702 84 160 12.0 17.0 0.00 0.00 0.00 81 1007.3
20260505233200 85 169 11.0 14.0 0.00 0.00 0.00 80 1007.2
20260505232658 85 211 9.0 12.0 0.00 0.00 0.00 80 1007.0
20260505232155 85 146 15.0 26.0 0.00 0.00 0.00 79 1007.3
20260505231652 85 177 12.0 15.0 0.00 0.00 0.00 80 1007.3
20260505231151 85 133 13.0 15.0 0.00 0.00 0.00 80 1007.4
20260505230649 86 138 13.0 19.0 0.00 0.00 0.00 79 1007.1
20260505230145 86 183 14.0 21.0 0.00 0.00 0.00 77 1007.1
20260505225641 86 162 6.0 10.0 0.00 0.00 0.00 78 1007.0
20260505225137 87 138 11.0 21.0 0.00 0.00 0.00 78 1006.9
20260505224634 86 183 15.0 21.0 0.00 0.00 0.00 77 1007.0
20260505224132 87 128 9.0 12.0 0.00 0.00 0.00 76 1006.9
20260505223629 87 178 15.0 22.0 0.00 0.00 0.00 77 1007.2
20260505223125 87 194 20.0 29.0 0.00 0.00 0.00 77 1006.9
20260505222621 86 162 7.0 14.0 0.00 0.00 0.00 77 1007.0
20260505222117 86 147 7.0 10.0 0.00 0.00 0.00 77 1007.0
20260505221614 87 134 17.0 26.0 0.00 0.00 0.00 76 1007.1
20260505221111 87 181 18.0 26.0 0.00 0.00 0.00 74 1007.2
20260505220609 88 202 14.0 21.0 0.00 0.00 0.00 74 1007.0
20260505220106 89 122 10.0 17.0 0.00 0.00 0.00 74 1007.3
20260505215604 89 181 15.0 26.0 0.00 0.00 0.00 72 1007.2
20260505215101 88 157 16.0 24.0 0.00 0.00 0.00 73 1007.3
20260505214600 88 148 16.0 22.0 0.00 0.00 0.00 73 1007.5
20260505214056 89 166 19.0 32.0 0.00 0.00 0.00 72 1007.3
20260505213554 89 183 12.0 19.0 0.00 0.00 0.00 73 1007.3
20260505213050 89 122 8.0 10.0 0.00 0.00 0.00 73 1007.5
20260505212546 90 152 12.0 14.0 0.00 0.00 0.00 71 1007.6
20260505212044 89 121 13.0 17.0 0.00 0.00 0.00 72 1007.5
20260505211541 90 148 11.0 14.0 0.00 0.00 0.00 71 1007.8
20260505211037 91 210 5.0 5.0 0.00 0.00 0.00 70 1007.7
20260505210534 91 165 14.0 21.0 0.00 0.00 0.00 70 1007.7
20260505210031 91 177 14.0 17.0 0.00 0.00 0.00 69 1007.7
20260505205529 91 169 17.0 26.0 0.00 0.00 0.00 69 1007.9
20260505205026 91 194 11.0 14.0 0.00 0.00 0.00 68 1007.7
20260505204524 91 167 13.0 19.0 0.00 0.00 0.00 69 1008.1
20260505204021 91 159 9.0 12.0 0.00 0.00 0.00 69 1008.2
20260505203517 90 192 16.0 19.0 0.00 0.00 0.00 69 1008.1
20260505203014 90 157 10.0 12.0 0.00 0.00 0.00 70 1008.2
20260505202510 90 129 11.0 14.0 0.00 0.00 0.00 69 1008.5
20260505202006 91 133 13.0 21.0 0.00 0.00 0.00 69 1008.4
20260505201504 91 175 7.0 10.0 0.00 0.00 0.00 68 1008.7
20260505201001 90 177 16.0 22.0 0.00 0.00 0.00 69 1008.8
20260505200459 91 202 6.0 7.0 0.00 0.00 0.00 70 1008.8
20260505195954 90 134 9.0 10.0 0.00 0.00 0.00 70 1008.8
20260505195452 90 179 7.0 9.0 0.00 0.00 0.00 69 1008.8
20260505194949 90 129 13.0 15.0 0.00 0.00 0.00 69 1008.8
20260505194446 90 181 10.0 12.0 0.00 0.00 0.00 70 1009.0
20260505193946 90 105 13.0 19.0 0.00 0.00 0.00 70 1009.1
20260505193444 90 122 4.0 5.0 0.00 0.00 0.00 68 1009.2
20260505192941 90 173 11.0 17.0 0.00 0.00 0.00 68 1009.0
20260505192440 90 169 5.0 10.0 0.00 0.00 0.00 67 1009.1
20260505191937 89 134 8.0 9.0 0.00 0.00 0.00 68 1009.0
20260505191436 91 153 11.0 14.0 0.00 0.00 0.00 65 1009.1
20260505190932 89 180 15.0 24.0 0.00 0.00 0.00 67 1009.2
20260505190427 90 166 7.0 10.0 0.00 0.00 0.00 67 1009.1
20260505185923 90 122 18.0 22.0 0.00 0.00 0.00 65 1009.3
20260505185420 91 254 7.0 9.0 0.00 0.00 0.00 64 1009.2
20260505184916 89 186 7.0 7.0 0.00 0.00 0.00 66 1009.4
20260505184413 89 199 7.0 9.0 0.00 0.00 0.00 67 1009.5
20260505183910 90 188 5.0 7.0 0.00 0.00 0.00 66 1009.7
20260505183407 89 164 9.0 14.0 0.00 0.00 0.00 67 1009.6
20260505182904 89 159 5.0 9.0 0.00 0.00 0.00 68 1009.6
20260505182400 88 173 8.0 10.0 0.00 0.00 0.00 68 1009.7
20260505181857 89 195 11.0 14.0 0.00 0.00 0.00 67 1009.9
20260505181355 89 180 14.0 17.0 0.00 0.00 0.00 65 1009.7
20260505180851 89 211 12.0 14.0 0.00 0.00 0.00 67 1009.8
20260505180347 89 205 7.0 10.0 0.00 0.00 0.00 68 1009.9
20260505175844 88 216 4.0 7.0 0.00 0.00 0.00 69 1010.2
20260505175340 88 234 6.0 14.0 0.00 0.00 0.00 69 1009.9
20260505174837 88 229 10.0 12.0 0.00 0.00 0.00 70 1010.0
20260505174335 87 187 7.0 9.0 0.00 0.00 0.00 70 1009.8
20260505173830 87 179 10.0 14.0 0.00 0.00 0.00 71 1010.2
20260505173327 87 198 5.0 7.0 0.00 0.00 0.00 71 1010.3
20260505172824 87 198 6.0 7.0 0.00 0.00 0.00 71 1010.3
20260505172322 87 215 8.0 12.0 0.00 0.00 0.00 71 1010.4
20260505171821 87 259 11.0 17.0 0.00 0.00 0.00 71 1010.6
20260505171319 87 208 13.0 15.0 0.00 0.00 0.00 70 1010.5
20260505170815 86 236 11.0 15.0 0.00 0.00 0.00 72 1010.5